Location: Unspecified
(44.4377°N, 88.0525°W)
Time: 09:33:08
(UTC-05:00)

Resurs 1-4 Rocket - Visible Passes

Search period start: 18 April 2019 00:00
Search period end: 28 April 2019 00:00
Orbit: 799 x 815 km, 98.6° (Epoch: 17 April)

Date Brightness Start Highest point End Pass type
(mag) Time Alt. Az. Time Alt. Az. Time Alt. Az.
18 Apr 2.5 02:29:27 10° NNE 02:34:06 58° ENE 02:34:06 58° ENE visible
18 Apr 3.6 04:10:18 10° NNW 04:14:01 20° WNW 04:15:12 19° WNW visible
19 Apr 3.2 02:05:06 10° NNE 02:09:19 36° E 02:09:19 36° E visible
19 Apr 3.0 03:45:08 10° N 03:49:41 31° WNW 03:50:24 30° W visible
20 Apr 3.9 01:41:04 10° NE 01:44:31 22° E 01:44:31 22° E visible
20 Apr 2.4 03:20:13 10° N 03:25:15 49° WNW 03:25:36 48° W visible
21 Apr 4.4 01:17:41 10° ENE 01:19:43 14° E 01:19:43 14° E visible
21 Apr 1.9 02:55:29 10° NNE 03:00:45 79° WNW 03:00:49 79° W visible
21 Apr 4.1 04:37:38 10° NNW 04:39:43 12° NW 04:41:47 10° W visible
22 Apr 2.3 02:30:55 10° NNE 02:36:00 64° E 02:36:00 64° E visible
22 Apr 3.7 04:11:50 10° NNW 04:15:29 19° WNW 04:17:06 17° W visible
23 Apr 3.1 02:06:33 10° NNE 02:11:12 38° E 02:11:12 38° E visible
23 Apr 3.1 03:46:38 10° N 03:51:09 30° WNW 03:52:17 27° W visible
24 Apr 3.8 01:42:29 10° NE 01:46:24 24° E 01:46:24 24° E visible
24 Apr 2.4 03:21:42 10° N 03:26:44 47° WNW 03:27:29 44° W visible
25 Apr 4.3 01:19:02 10° ENE 01:21:36 14° E 01:21:36 14° E visible
25 Apr 1.9 02:56:57 10° N 03:02:13 77° WNW 03:02:41 71° WSW visible
25 Apr 4.1 04:39:15 10° NNW 04:41:10 12° NW 04:43:05 10° WNW visible
26 Apr 2.2 02:32:23 10° NNE 02:37:38 66° ESE 02:37:53 65° ESE visible
26 Apr 3.7 04:13:21 10° NNW 04:16:56 19° WNW 04:18:58 15° W visible
27 Apr 2.9 02:08:00 10° NNE 02:12:57 40° E 02:13:05 40° ESE visible
27 Apr 3.2 03:48:08 10° N 03:52:37 29° WNW 03:54:10 25° W visible
